Wind_Speed
17 16 16 15 15 15 15 14 14 15 16 17 17 17 18 18 19 19 19 19 19 19 19 18 17 17 17 16 16 16 15 15 15 15 15 15 15 16 16 17 17 18 19
20 19 19 19 18 18 17 16 16 17 18 18 19 19 20 20 20 20 19 20 20 21 21 20 19 19 18 18 17 16 16 16 16 16 15 16 16 16 17 17 18 18 19
22 22 22 21 21 21 20 19 19 20 20 21 21 22 22 23 23 22 21 21 21 21 22 22 22 21 20 19 19 18 18 17 17 16 16 16 17 17 17 18 19 19 20
25 24 24 24 23 23 23 22 21 22 23 23 23 24 24 25 25 24 23 22 22 22 23 23 23 23 23 22 21 20 20 19 18 17 17 17 17 18 18 19 19 20 20
28 26 26 26 25 25 25 25 24 25 25 25 25 26 27 27 27 26 26 25 24 24 24 25 24 24 24 24 23 22 21 21 20 19 18 18 18 18 19 19 20 21 21
31 29 28 28 27 27 27 27 27 27 28 28 28 28 29 29 29 29 28 28 27 27 26 27 26 25 25 25 25 24 23 22 21 21 20 20 19 19 20 20 21 21 22
34 32 32 31 30 29 29 29 30 30 31 31 31 31 31 32 31 31 30 30 29 29 28 28 28 27 27 27 26 25 25 24 23 22 22 22 21 21 21 22 22 22 23
37 35 34 33 32 31 31 31 31 31 32 34 34 34 32 33 34 33 33 32 31 31 30 30 29 28 28 27 27 27 26 26 25 24 24 23 23 23 22 23 23 24 24
41 39 36 35 34 32 31 31 31 31 33 35 37 37 35 33 34 35 36 34 33 32 32 31 30 29 29 29 29 29 28 27 27 26 26 25 25 24 24 24 24 24 24
41 40 37 35 34 31 30 30 31 33 34 36 37 38 38 36 34 32 34 36 35 34 32 31 31 31 31 31 31 30 30 29 29 28 28 27 26 25 25 25 25 25 25
38 37 34 31 30 29 29 30 31 33 34 36 37 37 37 37 36 33 31 34 35 35 34 33 33 32 32 32 33 33 31 30 30 29 28 28 26 25 25 25 25 25 25
33 32 30 28 28 29 29 30 32 34 35 36 36 36 36 35 34 33 30 30 33 35 35 34 34 34 34 34 34 34 33 32 30 29 29 28 27 26 25 25 25 25 24
30 30 29 28 28 29 30 32 34 35 35 35 35 34 34 33 32 32 30 29 30 32 34 34 33 34 34 34 35 34 33 33 31 30 29 28 27 26 25 25 25 25 24
30 31 31 31 31 32 33 34 35 35 34 33 32 32 31 31 31 30 30 29 28 29 30 32 33 32 32 32 33 34 32 32 31 29 28 27 27 26 25 25 25 25 24
30 32 33 33 34 34 35 34 34 33 32 31 30 29 29 29 29 28 29 29 28 27 28 31 33 32 31 30 31 32 32 32 30 28 28 27 26 26 25 25 25 25 24
33 34 34 34 34 34 33 32 31 30 30 29 28 28 28 28 28 27 27 27 27 26 26 28 30 30 29 29 30 31 31 30 29 28 27 26 26 26 25 25 24 24 24
33 34 33 33 33 33 32 31 30 29 29 28 29 29 29 29 29 28 27 27 27 26 26 27 29 29 28 28 29 30 29 27 26 27 26 25 25 24 24 24 24 24 24
33 33 32 32 32 32 32 31 31 30 30 30 30 30 30 30 31 30 30 29 29 27 26 26 28 29 29 29 28 28 27 26 25 25 25 23 23 23 22 22 22 22 22
32 32 32 32 32 33 33 33 32 32 33 33 33 33 32 32 32 32 32 32 31 30 29 28 28 28 28 28 28 27 26 26 26 26 25 24 23 23 22 21 21 21 22
31 31 32 33 33 33 33 33 34 34 34 34 34 34 34 34 34 34 34 34 34 33 32 31 30 30 30 29 28 28 27 27 26 26 25 25 23 22 21 21 22 21 22
31 31 32 33 33 33 33 33 34 34 35 35 35 35 35 35 35 36 36 36 36 36 35 34 33 32 32 31 30 29 29 29 28 27 26 25 24 23 22 21 21 22 23
30 31 32 32 32 32 32 33 34 34 34 35 35 35 36 36 36 36 37 37 37 37 37 36 36 35 35 34 33 33 32 31 30 28 27 26 26 25 24 23 22 22 22
29 30 30 30 31 31 32 32 32 33 33 34 34 35 36 36 36 37 37 37 37 38 38 38 38 37 37 37 36 35 35 33 31 30 29 29 28 26 25 24 23 22 22
27 28 29 29 29 29 29 29 29 30 31 32 32 33 34 35 36 36 36 37 37 37 37 38 39 39 39 39 39 38 37 36 35 34 33 31 30 29 28 26 25 24 24
24 25 25 24 23 23 23 24 25 26 27 29 30 32 33 34 34 35 36 36 36 36 36 36 37 39 40 40 40 40 40 39 38 37 36 34 32 31 31 29 27 27 27
20 19 18 18 18 19 20 22 23 24 26 27 29 30 32 33 35 35 36 36 36 36 35 35 36 37 38 39 40 40 40 40 40 39 38 36 35 34 33 32 31 30 28
Wind_Direction
286 285 284 282 283 288 297 303 309 315 322 325 326 323 320 318 312 301 293 290 283 277 277 279 282 285 287 288 288 287 287 288 287 286 282 278 276 275 274 274 271 269 266
283 283 282 282 283 285 290 294 298 303 311 317 320 320 318 316 314 308 299 294 288 280 277 277 278 280 282 283 283 283 284 286 286 286 285 281 278 277 275 273 271 269 268
280 280 280 280 281 282 284 287 291 296 302 308 312 313 313 313 312 308 302 295 290 284 279 276 275 276 278 279 279 278 280 282 283 284 284 283 280 277 276 274 271 269 269
277 277 277 277 278 279 280 283 288 292 296 300 304 306 307 307 307 305 301 296 291 285 280 277 275 274 274 275 276 275 276 278 279 280 282 282 281 278 276 275 273 270 269
275 275 275 275 276 275 276 281 285 288 291 294 297 300 302 302 301 299 297 294 290 285 280 276 275 275 273 272 273 273 274 274 276 277 279 280 280 279 277 275 272 271 269
273 273 273 273 273 273 276 279 282 284 287 290 293 295 297 297 297 294 292 292 288 285 281 277 275 274 272 270 269 270 271 271 272 274 276 277 278 277 276 274 272 270 269
272 272 271 271 270 271 272 276 279 282 285 287 290 292 293 294 293 292 290 288 286 283 281 278 275 273 270 268 267 267 268 268 269 271 274 276 277 275 274 273 272 270 268
269 269 267 266 266 267 269 272 275 280 283 286 288 289 290 291 291 290 288 286 284 281 278 276 273 270 268 266 265 265 265 266 268 270 273 275 275 273 272 272 271 269 267
265 266 262 261 263 264 267 270 275 280 284 287 289 290 290 288 288 288 287 284 282 278 276 274 270 266 265 265 264 264 264 265 266 270 272 273 273 271 270 269 269 268 267
265 264 263 264 264 264 268 272 277 282 285 287 289 290 291 290 288 285 285 283 280 277 274 272 267 265 264 263 263 263 263 263 266 269 271 271 272 270 268 267 266 265 265
262 263 265 264 264 268 272 276 281 284 287 289 290 291 291 291 290 287 283 281 280 278 273 270 267 264 264 264 263 262 262 264 264 266 269 270 270 269 266 265 264 263 262
263 263 263 265 268 273 275 280 285 287 289 290 290 291 291 291 290 289 285 279 278 277 275 271 268 264 263 264 264 262 261 263 263 265 267 269 269 267 264 263 261 261 261
264 265 266 270 273 276 279 283 286 288 290 290 290 290 290 290 289 289 286 281 277 276 276 274 270 266 264 263 262 261 260 261 261 262 264 266 266 265 263 261 259 259 259
264 266 268 271 275 278 281 284 286 288 289 289 289 289 290 290 290 289 286 284 280 276 275 273 270 268 267 265 262 260 260 260 259 259 261 262 263 263 262 259 257 257 257
267 268 268 272 275 279 282 284 286 287 287 287 287 286 287 288 289 289 288 285 283 280 277 274 271 269 267 266 266 262 259 258 257 257 258 258 259 260 259 257 256 255 255
267 267 266 270 273 276 279 281 283 283 284 284 283 283 284 285 287 287 287 286 283 280 277 274 273 272 271 267 266 263 260 257 256 256 256 256 257 258 257 256 254 254 253
264 264 265 268 271 273 275 277 279 280 281 281 281 281 282 282 282 284 285 285 285 282 279 275 272 271 270 267 266 264 259 256 256 255 254 255 256 255 255 255 253 251 250
261 261 264 267 270 271 273 274 276 276 277 278 279 279 280 280 280 281 282 283 283 282 280 277 273 270 267 265 264 263 259 258 258 256 254 253 253 252 253 253 251 247 246
258 261 264 266 268 270 271 273 274 275 276 276 277 278 278 279 279 279 279 280 280 279 278 276 274 272 269 265 261 259 259 258 258 257 255 253 253 252 252 250 248 244 242
257 261 263 266 267 269 270 272 273 275 276 277 277 278 279 279 279 279 278 278 277 277 276 274 272 271 270 266 261 258 258 258 258 259 256 254 252 252 251 250 248 243 240
258 261 263 265 267 269 270 272 274 275 277 278 279 280 280 280 279 279 278 278 276 275 274 273 271 269 268 266 262 259 258 258 258 258 257 254 253 252 251 252 248 243 241
260 261 263 265 267 269 272 273 275 277 278 279 280 282 283 282 282 280 279 278 276 274 272 271 269 267 266 264 263 260 258 257 257 256 255 253 253 253 251 249 246 243 240
262 263 265 267 269 271 273 275 278 280 281 282 283 284 284 284 284 283 282 280 277 275 273 271 268 266 264 262 260 258 256 255 254 253 252 253 253 252 251 248 245 244 242
264 265 268 270 272 273 276 278 280 282 284 285 286 287 287 287 286 285 283 282 279 277 274 271 268 266 263 260 258 256 255 253 252 251 250 250 250 251 251 250 247 245 243
267 269 270 271 273 276 279 282 284 286 288 289 290 290 290 289 288 287 286 283 281 278 275 271 268 265 262 259 256 254 252 250 249 248 247 247 248 249 250 249 248 244 243
266 269 271 273 276 280 283 286 288 291 293 294 295 294 293 292 291 289 288 285 282 279 276 273 270 266 263 259 256 254 251 248 246 245 244 243 244 246 248 247 247 246 245
Height
5902 5901 5900 5899 5897 5895 5894 5892 5891 5890 5888 5886 5883 5881 5879 5877 5875 5874 5873 5872 5871 5871 5870 5870 5869 5869 5869 5868 5867 5867 5866 5865 5864 5863 5862 5862 5861 5860 5860 5859 5859 5859 5859
5897 5896 5895 5894 5893 5891 5890 5888 5887 5886 5884 5882 5880 5878 5876 5874 5872 5870 5868 5867 5866 5866 5865 5865 5865 5865 5864 5864 5863 5863 5862 5862 5861 5860 5859 5858 5857 5857 5856 5855 5855 5855 5855
5892 5891 5890 5889 5888 5887 5885 5884 5883 5882 5880 5878 5876 5874 5872 5870 5868 5865 5864 5862 5862 5861 5860 5860 5860 5860 5859 5859 5859 5859 5858 5858 5857 5856 5855 5854 5854 5853 5852 5852 5851 5851 5851
5887 5886 5885 5883 5882 5881 5880 5879 5878 5877 5875 5874 5872 5870 5868 5865 5863 5861 5859 5858 5857 5856 5855 5855 5855 5854 5854 5854 5854 5854 5854 5853 5853 5852 5851 5850 5850 5849 5848 5847 5847 5847 5847
5881 5880 5879 5878 5876 5875 5874 5873 5872 5871 5870 5868 5866 5864 5862 5860 5859 5857 5855 5853 5851 5850 5849 5849 5849 5849 5849 5849 5849 5849 5849 5849 5848 5848 5847 5846 5845 5844 5844 5843 5842 5842 5842
5874 5873 5872 5871 5870 5868 5867 5867 5866 5864 5863 5862 5860 5858 5856 5854 5852 5851 5849 5847 5845 5844 5843 5843 5842 5842 5842 5843 5843 5843 5843 5843 5843 5843 5842 5841 5840 5839 5839 5838 5837 5837 5837
5865 5865 5864 5863 5861 5860 5860 5859 5858 5857 5856 5855 5854 5852 5850 5847 5845 5844 5842 5840 5839 5838 5837 5836 5836 5835 5835 5836 5836 5837 5837 5837 5837 5837 5836 5835 5835 5834 5833 5833 5832 5832 5832
5856 5855 5854 5853 5852 5852 5851 5851 5850 5849 5848 5846 5846 5845 5844 5842 5838 5836 5834 5833 5832 5831 5830 5829 5828 5828 5828 5828 5829 5830 5830 5830 5830 5830 5830 5829 5829 5828 5827 5827 5826 5826 5826
5846 5845 5844 5844 5843 5843 5843 5843 5842 5841 5840 5838 5836 5835 5835 5834 5831 5828 5826 5824 5823 5823 5822 5821 5821 5821 5821 5821 5822 5822 5823 5823 5823 5823 5823 5822 5822 5821 5821 5821 5820 5820 5820
5836 5836 5835 5835 5834 5834 5834 5835 5834 5833 5832 5830 5828 5826 5824 5823 5823 5822 5818 5815 5814 5814 5814 5813 5813 5813 5813 5813 5813 5814 5815 5815 5816 5816 5816 5815 5815 5815 5814 5814 5814 5814 5814
5827 5827 5826 5826 5826 5826 5827 5826 5826 5825 5824 5822 5819 5817 5815 5813 5812 5812 5812 5808 5806 5805 5805 5805 5804 5805 5804 5805 5805 5806 5807 5807 5808 5808 5808 5808 5808 5808 5807 5807 5807 5807 5808
5818 5818 5818 5818 5819 5819 5818 5818 5817 5816 5815 5813 5811 5809 5807 5805 5803 5802 5802 5801 5799 5796 5796 5796 5796 5796 5796 5796 5796 5797 5798 5799 5799 5800 5800 5800 5800 5800 5800 5800 5800 5801 5801
5809 5809 5810 5810 5810 5810 5810 5810 5809 5807 5806 5804 5802 5800 5798 5797 5795 5794 5793 5792 5791 5789 5787 5787 5787 5787 5787 5787 5787 5788 5789 5790 5791 5791 5792 5792 5792 5792 5793 5793 5794 5794 5795
5800 5801 5801 5802 5802 5802 5802 5801 5800 5798 5797 5795 5793 5792 5790 5788 5787 5786 5785 5784 5783 5782 5780 5779 5778 5778 5779 5778 5778 5779 5780 5781 5782 5783 5784 5784 5785 5785 5785 5786 5787 5787 5788
5791 5792 5792 5793 5793 5793 5793 5792 5791 5789 5788 5786 5785 5784 5782 5781 5779 5778 5777 5776 5776 5775 5773 5771 5770 5770 5770 5770 5770 5770 5771 5772 5773 5775 5776 5776 5777 5777 5778 5779 5780 5781 5782
5782 5783 5784 5784 5784 5784 5784 5783 5782 5781 5780 5779 5777 5776 5775 5774 5772 5771 5769 5768 5767 5767 5766 5764 5762 5762 5762 5762 5762 5762 5763 5764 5765 5766 5767 5768 5769 5770 5771 5772 5773 5774 5775
5773 5774 5774 5775 5775 5775 5775 5774 5774 5773 5772 5771 5770 5769 5767 5766 5765 5764 5762 5761 5760 5759 5758 5757 5755 5754 5755 5754 5755 5755 5755 5756 5757 5758 5759 5760 5762 5763 5764 5765 5766 5767 5769
5763 5764 5765 5765 5766 5766 5766 5766 5765 5765 5764 5763 5762 5761 5759 5758 5757 5756 5754 5753 5752 5751 5751 5749 5748 5747 5747 5747 5747 5747 5748 5748 5750 5751 5752 5753 5755 5756 5757 5758 5759 5761 5762
5754 5755 5756 5757 5757 5757 5757 5757 5757 5756 5755 5754 5753 5752 5751 5750 5748 5747 5746 5745 5744 5743 5743 5742 5741 5740 5739 5740 5740 5740 5741 5741 5742 5744 5745 5746 5748 5749 5750 5752 5753 5754 5756
5745 5746 5747 5748 5748 5748 5748 5748 5748 5747 5746 5745 5744 5743 5742 5740 5739 5738 5737 5736 5734 5734 5733 5733 5733 5732 5732 5732 5732 5733 5733 5734 5735 5736 5738 5739 5741 5742 5743 5745 5746 5748 5749
5736 5738 5738 5739 5740 5739 5739 5739 5739 5738 5737 5736 5735 5733 5732 5730 5729 5727 5726 5725 5724 5724 5723 5723 5723 5723 5724 5724 5724 5725 5726 5726 5728 5729 5730 5732 5734 5735 5736 5738 5739 5741 5743
5728 5729 5730 5730 5731 5731 5730 5730 5730 5729 5728 5727 5725 5724 5722 5720 5718 5717 5716 5714 5713 5713 5712 5712 5713 5713 5714 5715 5715 5716 5717 5719 5720 5722 5723 5725 5726 5728 5729 5731 5732 5734 5736
5720 5721 5722 5722 5722 5722 5722 5722 5721 5720 5719 5717 5716 5714 5712 5710 5708 5706 5704 5703 5702 5701 5701 5701 5701 5702 5703 5704 5706 5707 5708 5710 5711 5713 5715 5716 5718 5720 5722 5723 5725 5727 5729
5712 5713 5713 5714 5714 5714 5714 5713 5713 5712 5710 5709 5707 5704 5702 5700 5697 5695 5693 5692 5690 5689 5689 5689 5689 5689 5690 5692 5694 5696 5698 5700 5702 5704 5706 5708 5710 5711 5713 5715 5717 5719 5722
5705 5706 5706 5707 5707 5707 5707 5706 5705 5704 5702 5700 5697 5695 5692 5690 5687 5685 5682 5680 5679 5678 5677 5676 5676 5677 5678 5679 5681 5683 5686 5689 5691 5694 5696 5699 5700 5702 5704 5707 5709 5711 5714
5699 5700 5700 5701 5701 5701 5700 5699 5698 5696 5694 5692 5689 5686 5683 5680 5677 5674 5672 5669 5668 5666 5665 5665 5665 5665 5665 5667 5669 5671 5673 5677 5680 5683 5685 5688 5691 5693 5695 5697 5700 5702 5705